Eindhoven, Netherlands

4:29 AM CEST on October 17, 2017 (GMT +0200)
Eindhoven Air Base

Weather History for EHEH - May, 2012

Change the Weather History Date:

Wednesday, May 16, 2012

  Actual Average Record
Temperature  
Mean Temperature 49 °F -  
Max Temperature 56 °F 67 °F 86 °F (2000)
Min Temperature 42 °F 48 °F 35 °F (2003)
Degree Days  
Heating Degree Days 16    
Moisture  
Dew Point 38 °F    
Average Humidity 70    
Maximum Humidity 93    
Minimum Humidity 29    
Precipitation  
Precipitation 0.00 in - - ()
Sea Level Pressure  
Sea Level Pressure 30.17 in    
Wind  
Wind Speed 8 mph ()    
Max Wind Speed 17 mph    
Max Gust Speed 33 mph    
Visibility 6.6 miles    
Events Rain    
Averages and records for this station are not official NWS values.
T = Trace of Precipitation, MM = Missing Value Source: Averaged Metar Reports

Daily Weather History Graph

Daily Weather History Graph

Search for Another Location

Airport or City:

Trip Planner

Search our weather history database for the weather conditions in past years. The results will help you decide how hot, cold, wet, or windy it might be!

Date:

Astronomy

May. 16, 2012 Rise Set
Actual Time 5:44 AM CEST 9:25 PM CEST
Civil Twilight 5:03 AM CEST 10:07 PM CEST
Nautical Twilight 4:06 AM CEST 11:04 PM CEST
Astronomical Twilight 2:39 AM CEST 12:35 AM CEST
Moon 3:35 AM CEST (5/16) 5:01 PM CEST (5/16)
Length of Visible Light 17h 04m
Length of Day
15h 40m
Waning Crescent, 18% of the Moon is Illuminated
May 16
Waning Crescent
May 21
New
May 28
First Quarter
Jun 4
Full
Jun 11
Last Quarter

Hourly Weather History & Observations

Time (CEST) Temp. Windchill Dew Point Humidity Pressure Visibility Wind Dir Wind Speed Gust Speed Precip Events Conditions
12:25 AM 44.6 °F 41.4 °F 42.8 °F 93% 29.98 in 6.2 mi WNW 5.8 mph - N/A   Mostly Cloudy
12:55 AM 44.6 °F 39.7 °F 42.8 °F 93% 30.01 in 6.2 mi NW 9.2 mph - N/A   Mostly Cloudy
1:25 AM 44.6 °F 40.2 °F 42.8 °F 93% 30.01 in 6.2 mi NW 8.1 mph - N/A   Overcast
1:55 AM 44.6 °F 40.2 °F 41.0 °F 87% 30.01 in 6.2 mi WNW 8.1 mph - N/A   Drizzle
2:00 AM 45 °F - 42 °F 84% 30.04 in 9 mi WNW 8.9 mph - - Rain Light Rain
2:25 AM 44.6 °F 41.4 °F 41.0 °F 87% 30.04 in 6.2 mi WNW 5.8 mph - N/A   Scattered Clouds
2:55 AM 44.6 °F 40.2 °F 41.0 °F 87% 30.04 in 6.2 mi WNW 8.1 mph - N/A   Overcast
3:25 AM 42.8 °F 38.6 °F 41.0 °F 93% 30.04 in 6.2 mi WNW 6.9 mph - N/A   Scattered Clouds
3:55 AM 42.8 °F 39.3 °F 39.2 °F 87% 30.06 in 6.2 mi WNW 5.8 mph - N/A   Mostly Cloudy
4:25 AM 42.8 °F 38.6 °F 39.2 °F 87% 30.06 in 6.2 mi WNW 6.9 mph - N/A   Scattered Clouds
4:55 AM 42.8 °F 40.1 °F 39.2 °F 87% 30.06 in 6.2 mi West 4.6 mph - N/A   Mostly Cloudy
5:00 AM 43 °F - 39 °F 82% 30.10 in 11 mi West 4.5 mph - - Rain Drizzle
5:25 AM 42.8 °F 38.6 °F 39.2 °F 87% 30.09 in 6.2 mi West 6.9 mph - N/A   Mostly Cloudy
5:55 AM 42.8 °F 38.6 °F 39.2 °F 87% 30.09 in 6.2 mi West 6.9 mph - N/A   Overcast
6:18 AM 42.8 °F 38.6 °F 39.2 °F 87% 30.09 in 6.2 mi WNW 6.9 mph - N/A   Mostly Cloudy
6:25 AM 42.8 °F 38.6 °F 39.2 °F 87% 30.09 in 6.2 mi WNW 6.9 mph - N/A   Mostly Cloudy
6:33 AM 42.8 °F 39.3 °F 39.2 °F 87% 30.09 in 6.2 mi West 5.8 mph - N/A   Mostly Cloudy
6:45 AM 42.8 °F 38.6 °F 39.2 °F 87% 30.12 in 6.2 mi West 6.9 mph - N/A Rain Light Rain
6:55 AM 42.8 °F 38.6 °F 39.2 °F 87% 30.12 in 6.2 mi WNW 6.9 mph - N/A   Mostly Cloudy
7:03 AM 42.8 °F 39.3 °F 39.2 °F 87% 30.12 in 6.2 mi West 5.8 mph - N/A   Overcast
7:11 AM 42.8 °F 38.6 °F 39.2 °F 87% 30.12 in 6.2 mi West 6.9 mph - N/A   Scattered Clouds
7:25 AM 42.8 °F 38.6 °F 39.2 °F 87% 30.12 in 6.2 mi West 6.9 mph - N/A   Mostly Cloudy
7:55 AM 42.8 °F 38.0 °F 39.2 °F 87% 30.12 in 6.2 mi West 8.1 mph - N/A   Scattered Clouds
8:00 AM 43 °F - 39 °F 81% 30.15 in 19 mi West 8.9 mph - - Rain Rain
8:25 AM 44.6 °F 40.7 °F 41.0 °F 87% 30.15 in 6.2 mi West 6.9 mph - N/A   Overcast
8:34 AM 44.6 °F 40.7 °F 41.0 °F 87% 30.15 in 6.2 mi West 6.9 mph - N/A   Mostly Cloudy
8:41 AM 44.6 °F 41.4 °F 41.0 °F 87% 30.15 in 6.2 mi West 5.8 mph - N/A   Mostly Cloudy
8:46 AM 46.4 °F 44.3 °F 41.0 °F 81% 30.15 in 6.2 mi WNW 4.6 mph - N/A   Overcast
8:55 AM 46.4 °F 43.5 °F 41.0 °F 81% 30.15 in 6.2 mi WNW 5.8 mph - N/A   Mostly Cloudy
9:03 AM 48.2 °F - 41.0 °F 76% 30.15 in 6.2 mi WNW 8.1 mph - N/A   Mostly Cloudy
9:06 AM 48.2 °F - 41.0 °F 76% 30.15 in 6.2 mi West 9.2 mph - N/A   Mostly Cloudy
9:16 AM 46.4 °F 40.4 °F 39.2 °F 76% 30.15 in 3.1 mi WNW 13.8 mph 33.4 mph N/A   Haze
9:25 AM 44.6 °F 37.8 °F 39.2 °F 81% 30.15 in 6.2 mi WNW 15.0 mph 33.4 mph N/A Rain Rain
9:26 AM 46.4 °F 40.7 °F 39.2 °F 76% 30.15 in 6.2 mi WNW 12.7 mph 25.3 mph N/A Rain Light Rain
9:42 AM 48.2 °F - 39.2 °F 71% 30.18 in 6.2 mi NW 10.4 mph - N/A   Mostly Cloudy
9:55 AM 48.2 °F - 39.2 °F 71% 30.18 in 6.2 mi NW 15.0 mph 28.8 mph N/A   Mostly Cloudy
10:25 AM 50.0 °F - 39.2 °F 66% 30.18 in 6.2 mi WNW 12.7 mph - N/A   Partly Cloudy
10:55 AM 50.0 °F - 35.6 °F 58% 30.18 in 6.2 mi WNW 15.0 mph - N/A   Mostly Cloudy
11:00 AM 52 °F - 40 °F 53% 30.21 in 19 mi Calm Calm - -   Scattered Clouds
11:25 AM 51.8 °F - 37.4 °F 58% 30.18 in 6.2 mi NW 12.7 mph - N/A   Partly Cloudy
11:55 AM 51.8 °F - 35.6 °F 54% 30.18 in 5.6 mi WNW 16.1 mph - N/A   Scattered Clouds
12:25 PM 51.8 °F - 37.4 °F 58% 30.21 in - NNW 16.1 mph - N/A   Mostly Cloudy
12:55 PM 53.6 °F - 35.6 °F 51% 30.21 in - NW 16.1 mph 28.8 mph N/A   Partly Cloudy
1:25 PM 53.6 °F - 35.6 °F 51% 30.21 in 6.2 mi NW 13.8 mph 25.3 mph N/A   Partly Cloudy
1:47 PM 53.6 °F - 37.4 °F 54% 30.21 in 6.2 mi NW 16.1 mph - N/A   Mostly Cloudy
1:55 PM 53.6 °F - 33.8 °F 47% 30.21 in 6.2 mi NW 16.1 mph - N/A   Scattered Clouds
2:00 PM 53 °F - 33 °F 34% 30.23 in 22 mi NW 15.7 mph - -   Partly Cloudy
2:25 PM 55.4 °F - 35.6 °F 47% 30.21 in 6.2 mi NW 13.8 mph - N/A   Mostly Cloudy
2:55 PM 53.6 °F - 33.8 °F 47% 30.21 in 6.2 mi NW 16.1 mph - N/A   Mostly Cloudy
3:25 PM 53.6 °F - 33.8 °F 47% 30.24 in 6.2 mi WNW 11.5 mph - N/A   Mostly Cloudy
3:55 PM 55.4 °F - 35.6 °F 47% 30.24 in 6.2 mi NW 17.3 mph - N/A   Unknown
4:25 PM 51.8 °F - 33.8 °F 50% 30.24 in 6.2 mi NW 13.8 mph - N/A   Mostly Cloudy
4:55 PM 55.4 °F - 35.6 °F 47% 30.24 in 6.2 mi NW 10.4 mph - N/A   Partly Cloudy
5:00 PM 54 °F - 31 °F 29% 30.26 in 22 mi WNW 13.4 mph - -   Mostly Cloudy
5:25 PM 55.4 °F - 32.0 °F 41% 30.24 in 6.2 mi WNW 13.8 mph - N/A   Scattered Clouds
5:26 PM 55.4 °F - 30.2 °F 38% 30.24 in 6.2 mi NW 15.0 mph - N/A   Partly Cloudy
5:55 PM 51.8 °F - 35.6 °F 54% 30.24 in 6.2 mi NW 12.7 mph - N/A   Mostly Cloudy
6:25 PM 53.6 °F - 32.0 °F 44% 30.24 in 6.2 mi WNW 12.7 mph - N/A   Mostly Cloudy
6:55 PM 51.8 °F - 32.0 °F 47% 30.24 in 6.2 mi NW 12.7 mph - N/A   Mostly Cloudy
7:25 PM 51.8 °F - 32.0 °F 47% 30.24 in 6.2 mi NW 11.5 mph - N/A   Partly Cloudy
7:55 PM 51.8 °F - 35.6 °F 54% 30.27 in 6.2 mi NNW 9.2 mph - N/A   Scattered Clouds
8:00 PM 50 °F - 35 °F 46% 30.28 in 25 mi NNW 6.7 mph - -   Scattered Clouds
8:25 PM 50.0 °F - 35.6 °F 58% 30.27 in 6.2 mi NNW 5.8 mph - N/A   Unknown
8:55 PM 48.2 °F - 35.6 °F 62% 30.27 in 6.2 mi NNW 6.9 mph - N/A   Scattered Clouds
9:25 PM 46.4 °F 42.9 °F 35.6 °F 66% 30.27 in 6.2 mi NNW 6.9 mph - N/A   Unknown
9:39 PM 46.4 °F 44.3 °F 35.6 °F 66% 30.27 in 6.2 mi NNW 4.6 mph - N/A   Mostly Cloudy
9:55 PM 46.4 °F 45.2 °F 35.6 °F 66% 30.27 in 6.2 mi NW 3.5 mph - N/A   Overcast
10:25 PM 46.4 °F 45.2 °F 37.4 °F 71% 30.27 in 6.2 mi NW 3.5 mph - N/A   Overcast
10:55 PM 46.4 °F - 37.4 °F 71% 30.27 in 6.2 mi WNW 2.3 mph - N/A   Overcast
11:00 PM 46 °F - 38 °F 65% 30.30 in 28 mi West 2.2 mph - -   Overcast
11:25 PM 44.6 °F 43.1 °F 39.2 °F 81% 30.27 in 6.2 mi WSW 3.5 mph - N/A   Overcast
11:55 PM 44.6 °F - 39.2 °F 81% 30.27 in 6.2 mi WSW 1.2 mph - N/A   Scattered Clouds